User: anonymous   Login
Location: Aalen
(48.8330°N, 10.1000°E)
Time: 15:19:16
(UTC+02:00)
Language:

FO-99 - Orbit

View from above orbital plane
View from above orbital plane
View from above satellite
View from above satellite

Ground track
Ground track

The orbit data is extracted from the following two-line orbital elements,

1 43937U 19003F   21266.61772552  .00003755  00000-0  14664-3 0  9995
2 43937  97.1676 305.8468 0023585  28.5721 331.6805 15.26229776149238
Epoch (UTC): 23 September 2021 14:49:31
Eccentricity: 0.0023585
inclination: 97.1676°
perigee height: 471 km
apogee height: 503 km
right ascension of ascending node: 305.8468°
argument of perigee: 28.5721°
revolutions per day: 15.26229776
mean anomaly at epoch: 331.6805°
orbit number at epoch: 14923

The dashed part of the orbit path shows where the satellite is in the earth's shadow,  

DLR